Location: Edinburgh
(55.9500°N, 3.1600°W)
Time: 19:25:17
(UTC+01:00)

QB50P2 - Visible Passes

Search period start: 21 April 2019 00:00
Search period end: 01 May 2019 00:00
Orbit: 595 x 610 km, 97.9° (Epoch: 20 April)

Date Brightness Start Highest point End Pass type
(mag) Time Alt. Az. Time Alt. Az. Time Alt. Az.
21 Apr ? 00:15:46 10° ENE 00:17:46 13° E 00:18:00 13° E visible
21 Apr ? 01:49:57 10° NNE 01:54:17 80° ESE 01:54:49 66° S visible
21 Apr ? 03:26:32 10° N 03:29:34 19° NW 03:31:37 14° W visible
22 Apr ? 00:27:10 10° NE 00:29:52 16° E 00:30:10 16° E visible
22 Apr ? 02:01:55 10° NNE 02:06:13 82° WNW 02:06:59 60° SSW visible
22 Apr ? 03:38:44 10° NNW 03:41:22 16° NW 03:43:47 11° W visible
23 Apr ? 00:38:46 10° NE 00:41:58 20° E 00:42:20 20° E visible
23 Apr ? 02:13:54 10° N 02:18:09 65° WNW 02:19:08 48° SW visible
23 Apr ? 03:51:03 10° NNW 03:53:10 14° NW 03:55:15 10° W visible
24 Apr ? 00:50:28 10° NE 00:54:01 25° E 00:54:29 24° ESE visible
24 Apr ? 02:25:54 10° N 02:30:03 52° WNW 02:31:18 38° WSW visible
24 Apr ? 04:03:35 10° NNW 04:04:56 11° NW 04:06:16 10° WNW visible
25 Apr ? 01:02:14 10° NNE 01:06:04 31° E 01:06:39 30° ESE visible
25 Apr ? 02:37:55 10° N 02:41:57 41° WNW 02:43:27 30° WSW visible
26 Apr ? 01:14:03 10° NNE 01:18:05 39° E 01:18:48 36° ESE visible
26 Apr ? 02:49:57 10° N 02:53:49 34° WNW 02:55:37 24° WSW visible
27 Apr ? 01:25:55 10° NNE 01:30:06 49° E 01:30:57 42° SE visible
27 Apr ? 03:02:02 10° N 03:05:40 28° WNW 03:07:46 19° WSW visible
28 Apr ? 01:37:49 10° NNE 01:42:04 62° ESE 01:43:06 46° SSE visible
28 Apr ? 03:14:08 10° N 03:17:30 23° WNW 03:19:55 15° W visible
29 Apr ? 00:15:36 10° ENE 00:17:31 13° E 00:18:27 12° E visible
29 Apr ? 01:49:44 10° NNE 01:54:02 79° ESE 01:55:16 46° S visible
29 Apr ? 03:26:17 10° N 03:29:20 19° NW 03:32:04 11° W visible
30 Apr ? 00:26:58 10° NE 00:29:37 16° E 00:30:36 15° ESE visible
30 Apr ? 02:01:41 10° NNE 02:05:58 83° WNW 02:07:24 41° SSW visible
30 Apr ? 03:38:30 10° NNW 03:41:08 16° NW 03:43:45 10° W visible
